Temp
62 62 62 63 63 63 63 63 63 63 63 63 64 63 63 64 64 64 64 73 72 70 69 69 66 66 65 61 62 58 48 44 49 51 55 57 56 59 59 56 57 62 57 57 56
62 62 62 62 62 62 62 63 63 63 63 63 63 63 63 64 63 64 73 73 72 70 69 67 63 64 59 58 59 53 45 50 56 56 56 58 58 57 55 55 56 57 54 54 56
62 62 62 62 62 62 62 62 62 62 62 62 62 63 62 61 62 66 71 72 72 70 70 69 67 65 56 57 56 53 50 55 60 61 60 58 55 59 55 55 58 59 57 52 51
61 61 61 61 61 62 62 62 62 62 62 62 62 62 62 61 55 68 70 71 71 70 69 66 63 58 55 55 59 51 58 59 60 61 58 57 57 56 57 65 63 62 59 52 51
60 60 60 60 61 61 62 62 62 62 62 62 62 62 61 57 62 68 68 69 67 68 67 65 61 58 54 54 55 53 56 60 61 60 58 58 58 56 56 60 62 61 57 53 54
60 60 60 60 60 61 61 62 62 62 61 62 62 62 59 54 69 68 67 65 66 65 64 64 62 62 57 57 54 55 57 58 58 59 57 57 55 55 62 57 59 60 58 54 56
60 60 59 59 60 60 61 61 61 61 61 62 63 62 58 63 68 66 67 65 65 64 62 62 62 60 57 55 58 56 54 54 58 57 56 55 54 51 65 57 59 59 56 56 57
60 59 59 59 60 60 61 61 61 61 61 62 63 58 57 67 64 66 66 65 66 66 64 64 63 60 55 58 56 49 47 44 53 53 55 58 51 58 59 56 57 56 56 56 56
60 59 59 60 60 60 60 61 61 61 62 64 56 56 56 67 64 68 67 64 64 64 64 69 62 55 55 47 44 41 39 41 48 54 51 50 48 60 58 54 55 55 54 57 59
59 59 59 60 60 60 60 61 60 61 62 64 66 54 60 60 63 64 65 66 61 61 59 56 52 47 45 44 38 38 38 42 45 51 47 45 47 55 58 53 53 54 54 53 55
60 59 60 60 60 61 57 56 56 55 55 57 57 57 60 62 63 61 64 63 60 55 48 50 45 43 51 49 53 44 42 41 48 53 47 47 50 54 59 55 53 57 59 60 56
60 60 60 60 60 60 55 51 49 50 45 56 56 57 61 61 57 58 63 56 52 46 48 44 42 52 51 50 47 46 45 45 50 53 47 48 49 52 54 59 61 60 60 59 63
60 59 59 59 60 57 52 51 56 53 42 51 55 56 58 60 55 57 60 54 49 46 46 47 50 53 51 48 46 45 43 46 45 47 45 43 46 44 50 58 60 62 62 62 61
59 59 59 60 57 52 51 55 55 52 38 47 51 54 56 56 50 56 56 54 48 47 45 44 53 51 46 45 48 44 49 48 44 39 38 42 38 41 48 51 53 57 59 61 63
59 59 59 60 51 52 55 55 52 49 29 50 50 58 54 52 49 51 54 52 45 46 45 46 45 44 43 49 48 49 47 46 41 36 34 36 34 40 47 46 53 60 58 61 63
58 59 59 58 53 54 55 51 51 41 29 46 49 46 47 47 47 48 49 52 49 45 44 47 47 48 48 47 47 46 42 40 35 34 28 38 37 47 40 48 50 57 60 63 66
58 57 56 59 55 58 57 53 40 32 47 44 44 45 44 44 44 44 43 41 41 37 36 41 43 46 49 43 42 44 39 30 25 23 29 40 35 48 50 52 52 57 61 63 66
57 57 55 58 57 57 52 46 33 43 43 48 47 44 43 46 45 43 39 38 41 41 36 36 40 44 47 48 43 39 42 30 22 29 39 33 31 47 52 58 58 58 61 57 52
57 55 54 55 56 54 48 37 38 42 48 48 48 42 40 44 46 41 38 38 43 44 40 35 38 43 44 44 49 39 36 45 33 20 22 36 43 52 48 49 50 51 50 50 51
52 52 52 56 56 51 42 41 42 48 49 48 41 44 36 40 41 39 39 43 43 45 49 44 38 41 40 43 41 41 43 33 31 21 20 32 35 43 48 51 57 51 51 52 49
49 46 50 57 54 45 37 40 46 50 51 46 45 44 43 40 42 44 46 44 47 46 46 46 42 39 37 37 38 36 36 36 37 33 32 31 37 56 51 47 48 49 50 47 48
45 39 51 55 43 42 40 45 48 45 49 48 47 47 45 47 44 44 43 46 48 47 42 46 39 32 38 44 43 42 40 41 35 32 32 37 38 56 54 53 49 48 50 49 49
42 42 52 51 37 39 43 43 46 45 46 45 44 46 48 43 38 43 45 52 52 49 44 43 34 31 30 35 42 38 43 44 43 40 34 29 35 57 57 56 54 51 56 56 54
41 33 43 45 45 40 41 41 41 45 44 46 44 46 41 39 45 40 42 48 48 49 49 47 39 33 29 38 41 36 39 42 42 34 35 36 39 47 52 53 56 57 59 60 61
39 34 37 35 39 40 41 41 38 39 45 45 41 42 39 35 36 36 39 38 42 45 43 43 33 35 36 39 41 40 40 41 40 41 35 38 38 45 50 53 55 56 56 55 54
34 33 36 34 35 36 37 36 36 37 38 37 36 32 34 31 32 30 32 33 32 35 35 35 31 32 31 35 34 33 38 39 40 40 41 41 39 50 52 54 53 54 54 53 54
36 40 35 33 30 29 30 36 35 35 37 38 34 31 30 33 35 36 38 36 34 31 30 31 30 28 25 34 32 28 34 37 38 41 40 34 42 48 46 49 50 51 45 41 41
MSLP
1021.14 1020.92 1020.67 1020.31 1019.95 1019.59 1019.27 1019.00 1018.80 1018.65 1018.43 1018.09 1017.80 1017.62 1017.42 1016.98 1016.54 1016.48 1015.86 1014.17 1014.21 1014.44 1014.85 1015.18 1015.36 1015.30 1015.43 1015.81 1016.02 1016.58 1017.56 1017.34 1015.93 1014.63 1013.63 1013.10 1013.14 1012.88 1012.91 1013.24 1013.55 1013.71 1014.08 1014.49 1014.85
1021.28 1021.03 1020.77 1020.44 1020.05 1019.65 1019.28 1019.00 1018.77 1018.51 1018.32 1018.06 1017.76 1017.45 1017.27 1017.07 1016.63 1015.69 1013.72 1013.63 1013.88 1014.34 1014.90 1015.14 1015.32 1015.50 1015.87 1016.00 1016.24 1016.73 1017.38 1016.23 1014.71 1013.81 1013.36 1013.07 1013.05 1012.90 1013.14 1013.23 1013.50 1013.77 1014.27 1014.92 1015.42
1021.35 1021.05 1020.76 1020.49 1020.13 1019.70 1019.31 1018.90 1018.62 1018.45 1018.26 1017.98 1017.66 1017.41 1017.18 1017.08 1016.62 1014.32 1013.42 1013.64 1013.93 1014.25 1014.35 1014.68 1014.88 1015.30 1015.87 1015.98 1016.12 1016.36 1016.24 1015.08 1014.01 1013.47 1013.24 1013.11 1013.10 1012.91 1013.12 1013.10 1012.99 1013.24 1013.81 1015.05 1015.71
1021.27 1021.08 1020.75 1020.43 1020.06 1019.69 1019.34 1018.94 1018.53 1018.18 1018.02 1017.79 1017.49 1017.22 1017.01 1017.02 1015.99 1013.68 1013.62 1013.81 1014.06 1014.36 1014.56 1014.77 1015.08 1015.52 1015.72 1015.79 1015.40 1015.95 1015.05 1014.68 1013.88 1013.33 1013.31 1013.19 1012.93 1013.01 1012.97 1011.63 1011.64 1012.18 1013.00 1014.38 1015.11
1021.16 1021.00 1020.79 1020.47 1020.08 1019.60 1019.15 1018.81 1018.45 1018.15 1017.87 1017.63 1017.37 1017.12 1016.91 1016.74 1015.00 1013.67 1013.84 1014.10 1014.26 1014.37 1014.44 1014.74 1015.11 1015.32 1015.56 1015.35 1015.28 1015.30 1014.80 1014.29 1013.71 1013.55 1013.52 1013.34 1012.88 1013.08 1012.01 1011.28 1011.86 1012.09 1012.74 1013.34 1013.91
1021.08 1020.85 1020.66 1020.36 1019.97 1019.51 1018.98 1018.56 1018.22 1017.97 1017.70 1017.34 1017.16 1017.10 1016.97 1016.16 1013.36 1013.41 1013.78 1014.29 1014.34 1014.46 1014.45 1014.64 1014.65 1014.74 1015.18 1015.15 1015.30 1014.73 1014.42 1013.96 1013.69 1013.77 1013.68 1013.81 1012.87 1013.11 1010.29 1010.85 1011.50 1011.90 1012.05 1012.40 1012.60
1020.88 1020.69 1020.37 1020.02 1019.62 1019.18 1018.69 1018.16 1017.83 1017.59 1017.36 1017.16 1016.92 1016.94 1016.57 1014.11 1013.24 1013.70 1013.97 1014.03 1014.07 1014.30 1014.52 1014.54 1014.50 1014.79 1015.09 1015.10 1014.85 1014.85 1014.94 1014.31 1013.46 1013.35 1013.66 1013.72 1013.02 1012.34 1009.64 1011.01 1011.12 1011.37 1011.37 1011.52 1011.42
1020.67 1020.35 1020.04 1019.68 1019.26 1018.76 1018.16 1017.65 1017.14 1016.83 1016.81 1016.76 1016.55 1016.70 1015.55 1013.56 1013.51 1013.78 1014.00 1014.17 1014.27 1014.43 1014.60 1014.64 1014.66 1015.01 1015.37 1015.27 1015.29 1015.56 1015.58 1015.10 1012.93 1013.08 1013.16 1013.33 1011.90 1010.24 1009.98 1010.88 1010.72 1010.68 1010.80 1010.88 1010.34
1020.52 1020.15 1019.78 1019.46 1019.03 1018.38 1017.65 1016.83 1016.29 1015.96 1016.23 1016.41 1016.56 1016.29 1014.92 1013.68 1013.66 1013.35 1013.60 1014.01 1014.28 1014.56 1014.70 1014.82 1014.96 1015.47 1015.83 1016.30 1016.72 1016.44 1016.04 1015.40 1013.84 1012.90 1013.17 1013.23 1012.04 1009.90 1009.94 1010.48 1010.35 1010.14 1009.96 1009.87 1009.67
1020.25 1020.04 1019.62 1019.19 1018.84 1018.11 1017.17 1016.24 1016.00 1015.88 1016.14 1016.28 1016.08 1016.44 1014.26 1013.28 1013.13 1013.29 1013.41 1013.81 1014.16 1014.68 1015.17 1015.44 1016.00 1016.29 1016.51 1016.63 1016.63 1016.07 1016.33 1015.42 1014.61 1013.17 1013.31 1013.31 1011.96 1010.57 1009.95 1010.31 1010.02 1009.76 1009.19 1008.98 1008.69
1019.96 1019.74 1019.43 1018.95 1018.55 1017.96 1017.14 1016.33 1016.70 1016.76 1016.53 1015.65 1015.16 1014.23 1013.10 1012.76 1012.89 1013.16 1013.34 1013.95 1014.47 1015.01 1015.56 1015.89 1016.57 1016.27 1015.19 1015.33 1015.04 1015.55 1015.56 1015.19 1013.76 1012.69 1012.98 1012.43 1011.57 1010.89 1009.87 1009.68 1009.51 1008.88 1008.40 1007.84 1007.26
1019.75 1019.61 1019.28 1018.82 1018.47 1018.05 1017.72 1018.26 1018.96 1019.35 1017.83 1015.33 1014.58 1014.28 1012.74 1012.83 1013.09 1013.47 1013.53 1014.22 1014.72 1015.27 1015.73 1016.30 1015.40 1014.37 1014.64 1014.99 1015.54 1015.44 1015.00 1014.40 1013.46 1012.86 1013.06 1011.99 1010.39 1010.26 1009.97 1008.62 1007.56 1007.37 1006.85 1006.26 1005.76
1019.42 1019.46 1019.29 1018.60 1018.34 1018.45 1018.70 1018.94 1018.86 1019.10 1018.82 1015.38 1013.88 1013.49 1013.10 1012.94 1013.16 1013.16 1013.68 1014.11 1014.69 1015.41 1015.35 1015.19 1014.57 1014.38 1014.81 1014.76 1015.00 1014.15 1014.68 1013.66 1013.35 1013.08 1012.69 1011.97 1008.95 1009.41 1008.69 1007.40 1006.55 1005.55 1005.05 1004.77 1004.40
1019.18 1019.27 1019.18 1018.78 1018.82 1019.03 1019.01 1018.86 1018.89 1018.93 1018.44 1015.05 1013.50 1013.09 1012.95 1012.77 1013.41 1013.50 1013.73 1013.97 1014.62 1014.52 1015.04 1014.79 1013.42 1013.81 1014.14 1014.27 1013.92 1013.55 1012.86 1013.26 1013.47 1013.94 1013.17 1012.59 1007.55 1008.40 1007.98 1007.19 1005.70 1004.47 1003.95 1003.36 1003.00
1018.68 1018.83 1018.98 1018.94 1019.45 1019.20 1018.97 1018.67 1019.02 1019.33 1017.31 1014.04 1013.40 1013.22 1013.04 1013.48 1014.09 1014.15 1014.04 1014.13 1014.40 1014.50 1014.82 1013.55 1013.13 1013.31 1013.63 1012.47 1013.29 1012.08 1012.92 1013.25 1013.65 1013.93 1013.51 1012.67 1011.97 1006.74 1006.14 1006.46 1005.52 1003.56 1002.80 1002.07 1001.39
1018.04 1018.31 1018.75 1019.03 1019.39 1018.80 1018.43 1018.54 1019.01 1019.00 1016.48 1013.92 1013.46 1013.75 1013.84 1013.93 1014.08 1014.16 1014.26 1014.30 1014.54 1014.69 1014.28 1013.37 1012.89 1012.79 1012.20 1012.33 1012.58 1012.82 1012.98 1013.57 1014.40 1014.76 1013.78 1011.80 1011.47 1001.90 1005.53 1004.72 1004.02 1002.96 1001.89 1000.96 1000.50
1018.16 1017.91 1018.21 1018.10 1018.27 1018.27 1018.07 1018.43 1018.99 1017.34 1014.92 1013.98 1013.58 1013.70 1013.82 1014.03 1014.20 1014.46 1014.48 1014.73 1014.88 1014.98 1014.15 1013.12 1012.46 1011.93 1011.96 1012.74 1012.79 1012.89 1013.51 1014.65 1015.03 1015.09 1012.31 1009.84 1010.25 1003.62 1004.21 1003.47 1002.96 1002.18 1001.29 1000.44 999.95
1017.99 1017.85 1017.94 1017.78 1017.77 1017.80 1018.61 1019.18 1018.06 1015.79 1014.72 1013.52 1013.68 1013.92 1014.26 1014.19 1014.11 1014.23 1014.59 1014.71 1014.43 1014.47 1014.16 1013.71 1011.38 1011.67 1011.33 1011.68 1011.74 1012.36 1012.84 1013.73 1013.34 1012.86 1010.62 1009.91 1007.88 1003.27 1002.26 1001.56 1001.30 1000.96 1000.36 1000.21 1000.58
1017.94 1017.77 1017.66 1017.58 1017.78 1018.05 1019.00 1018.26 1016.21 1015.36 1014.35 1013.80 1013.64 1013.86 1013.94 1013.64 1014.03 1014.09 1014.28 1013.96 1013.44 1013.28 1013.55 1012.99 1011.45 1011.10 1011.15 1011.08 1011.46 1011.98 1012.23 1011.22 1012.21 1012.02 1011.22 1008.46 1005.27 1003.40 1001.72 1001.65 1001.84 1001.47 1001.29 1000.81 1000.53
1018.10 1017.77 1017.30 1016.56 1017.51 1018.18 1018.27 1015.69 1014.92 1014.58 1014.20 1013.73 1013.72 1013.71 1013.19 1013.38 1013.88 1013.95 1013.42 1012.39 1012.43 1012.10 1011.50 1011.77 1011.79 1011.10 1011.70 1012.07 1011.60 1011.48 1011.29 1011.65 1011.95 1011.63 1010.14 1007.51 1005.54 1003.16 1001.80 1001.93 1001.63 1001.94 1001.47 1000.72 1000.55
1018.47 1017.72 1016.43 1016.54 1017.27 1017.85 1016.41 1015.05 1014.33 1013.64 1014.03 1014.25 1013.55 1013.64 1013.18 1013.05 1012.96 1012.90 1012.40 1011.93 1011.60 1011.60 1011.82 1011.95 1012.10 1011.88 1011.88 1011.31 1011.44 1011.85 1011.33 1011.27 1011.32 1010.44 1008.56 1006.97 1004.82 1000.45 1001.67 1001.89 1001.73 1001.61 1001.48 1001.16 1000.90
1018.30 1017.88 1016.27 1016.33 1017.49 1016.39 1015.20 1014.55 1013.74 1013.37 1013.55 1013.84 1013.66 1013.18 1012.97 1012.86 1012.24 1011.76 1011.46 1011.21 1011.19 1011.33 1011.72 1011.78 1011.90 1012.22 1011.87 1010.54 1010.42 1010.17 1009.70 1009.73 1009.82 1008.36 1007.22 1005.63 1003.52 1000.04 1001.82 1001.68 1001.05 1001.02 1001.20 1001.23 1000.76
1018.08 1017.21 1016.55 1016.25 1015.78 1015.36 1014.68 1014.30 1014.03 1013.21 1013.06 1013.57 1013.61 1013.04 1012.78 1012.60 1012.32 1011.70 1010.64 1010.20 1010.93 1011.65 1011.39 1011.48 1011.63 1011.69 1011.81 1011.76 1009.68 1009.75 1008.20 1008.00 1007.55 1007.37 1006.54 1005.26 1002.59 1000.00 1000.85 1000.53 1000.59 1000.58 1000.21 1000.15 1000.02
1018.47 1017.53 1016.51 1016.06 1015.25 1015.14 1014.80 1014.02 1013.74 1013.31 1013.17 1013.66 1013.65 1012.96 1013.53 1012.92 1012.38 1011.28 1010.81 1010.36 1010.53 1010.60 1011.12 1011.25 1011.02 1010.90 1010.35 1009.19 1008.75 1008.31 1007.18 1006.39 1006.49 1005.98 1004.48 1003.65 1002.22 1001.07 999.46 999.38 999.84 1000.02 999.95 1000.04 1000.43
1018.69 1017.50 1016.60 1016.07 1015.25 1015.26 1015.28 1014.70 1014.07 1013.62 1013.72 1013.68 1013.67 1013.52 1013.95 1013.70 1013.02 1012.33 1012.56 1012.28 1012.30 1011.74 1011.70 1011.50 1010.23 1009.89 1009.16 1008.92 1008.44 1007.67 1006.79 1005.80 1005.18 1003.89 1003.70 1002.49 1002.30 1001.85 1000.32 998.98 999.84 1000.00 999.92 1000.44 1000.37
1019.27 1018.27 1017.82 1017.14 1016.39 1016.02 1015.67 1015.17 1014.83 1014.80 1014.75 1014.77 1014.43 1015.36 1015.61 1015.51 1015.77 1015.20 1015.17 1015.14 1014.52 1013.39 1013.47 1013.16 1011.43 1010.65 1008.99 1008.80 1007.95 1006.74 1005.12 1004.31 1003.47 1002.98 1002.20 1002.52 1001.85 1001.35 1000.34 1000.03 999.64 999.35 1000.97 1001.39 1000.61
1019.53 1019.24 1018.93 1017.77 1017.24 1016.87 1016.28 1015.79 1015.71 1016.09 1015.97 1015.94 1016.44 1016.85 1016.48 1016.63 1016.74 1016.81 1016.78 1016.45 1016.23 1015.63 1013.93 1013.90 1012.79 1011.23 1009.05 1009.13 1008.24 1005.71 1004.71 1003.84 1003.41 1003.71 1003.83 1003.28 1002.21 1002.57 1002.50 1002.23 1001.56 1001.80 1003.20 1003.10 1002.85
Wind_Speed
13 14 15 15 16 16 15 15 15 15 15 15 16 15 11 9 7 1 6 9 6 13 5 5 1 1 3 0 2 4 4 3 6 3 4 1 3 2 1 2 3 6 4 3 8
12 13 14 14 15 15 15 15 15 15 14 15 15 14 13 10 2 8 9 8 11 13 6 7 4 3 1 2 1 5 4 9 6 3 4 3 5 3 1 3 4 4 1 4 11
10 11 13 15 16 16 16 16 15 14 14 14 15 15 11 6 4 8 1 11 11 9 4 5 4 5 2 3 4 5 7 6 6 4 4 3 3 4 5 7 10 10 7 8 6
9 10 11 13 15 16 17 17 16 15 14 14 14 13 10 1 6 1 6 8 8 5 4 3 3 4 4 6 6 4 9 7 5 3 3 4 2 5 9 16 6 12 6 10 12
7 8 10 12 14 15 17 18 18 16 14 13 13 10 2 1 11 4 6 5 5 6 7 7 5 5 5 5 2 6 5 6 7 7 6 3 11 8 12 12 9 8 8 15 15
7 8 9 11 14 16 17 18 19 16 15 12 11 4 2 4 3 8 9 6 4 4 5 6 7 7 4 5 5 4 5 7 6 7 5 6 8 5 17 4 12 11 13 13 18
7 9 10 11 14 16 18 19 19 18 16 14 7 2 3 16 0 6 7 5 3 4 3 3 3 3 0 4 3 4 9 9 10 7 10 6 14 13 28 3 10 12 11 12 19
7 9 11 12 14 17 20 20 19 17 16 12 6 3 8 2 4 5 3 2 1 2 1 3 2 3 3 4 7 3 3 5 0 6 6 12 20 14 9 7 15 13 11 10 13
9 10 12 14 16 19 21 22 20 14 6 5 3 4 9 0 3 6 6 3 3 3 4 2 2 3 3 4 6 2 6 8 13 10 5 7 13 17 6 9 12 11 11 12 15
9 11 12 14 17 20 23 20 5 3 2 2 2 3 4 6 3 3 4 5 4 5 3 3 4 1 1 5 9 8 6 6 9 3 5 6 16 15 11 5 11 11 10 10 13
9 9 12 13 16 20 13 4 6 4 3 8 6 5 3 3 2 4 4 6 4 4 7 4 5 11 21 16 14 4 6 7 9 8 6 11 18 19 20 10 13 19 18 18 16
10 9 11 12 16 20 3 6 3 3 9 8 11 10 6 3 3 4 5 7 6 7 5 1 12 19 3 6 10 11 18 19 13 16 7 14 22 11 11 20 20 19 20 19 19
9 9 10 13 15 4 3 3 2 4 2 12 6 5 5 8 7 6 11 5 5 6 10 15 10 11 12 9 9 16 14 18 17 6 5 10 21 11 12 19 20 21 21 19 21
9 8 7 14 3 3 1 1 1 3 3 9 3 2 2 4 2 4 2 3 3 11 8 9 11 15 8 8 14 15 14 14 9 2 11 4 24 3 7 13 12 18 18 20 22
9 8 4 3 3 3 1 0 1 1 8 4 1 2 3 5 1 4 1 3 4 3 4 11 4 6 10 22 9 18 4 7 3 4 5 6 8 4 8 8 16 18 17 20 21
9 9 6 3 1 5 2 2 3 5 10 5 2 3 3 1 1 1 3 3 0 3 5 14 2 5 9 3 7 1 2 4 5 3 7 12 10 20 7 12 8 13 17 21 21
6 10 9 4 3 1 2 4 3 6 3 4 1 2 2 3 3 4 5 5 6 3 4 3 7 5 5 4 1 4 5 5 4 0 12 8 9 25 9 9 11 15 18 18 20
4 6 5 3 4 5 5 3 7 3 6 2 2 3 5 6 7 6 4 5 6 3 3 2 20 8 6 13 10 11 10 9 9 11 17 7 9 18 14 14 13 17 20 12 6
7 2 3 3 5 4 5 8 6 6 6 5 6 5 6 6 8 6 8 7 9 16 11 5 14 3 5 3 10 4 8 12 5 2 2 7 16 12 7 9 10 14 9 13 11
1 2 4 10 10 2 3 19 6 5 2 1 8 8 8 5 5 6 7 4 5 12 8 5 8 2 4 4 3 5 1 2 2 3 7 8 8 18 16 15 18 11 14 15 9
2 2 3 12 5 2 9 9 9 8 7 9 13 15 10 6 9 9 7 4 5 4 8 4 5 7 2 8 8 0 5 4 2 4 12 16 12 31 14 6 9 10 11 10 10
2 4 4 9 5 4 12 9 6 7 9 14 9 16 20 20 19 16 17 14 1 4 5 6 5 6 19 10 5 5 10 9 11 13 10 16 17 32 20 18 6 7 8 8 5
3 3 5 4 9 12 8 8 7 13 14 5 11 11 13 19 19 21 25 22 17 16 7 6 4 10 4 11 14 12 19 16 15 13 19 18 18 28 22 22 16 11 16 14 11
2 3 4 4 8 8 13 16 14 6 8 10 15 12 18 22 22 16 21 13 12 18 20 9 16 17 19 18 6 8 14 15 22 15 21 23 28 30 34 29 23 20 20 21 21
2 5 2 4 10 13 14 10 14 15 10 3 4 11 12 13 11 11 11 12 13 15 5 7 17 18 24 28 28 29 28 28 27 27 24 26 28 24 29 33 21 16 17 13 8
3 2 4 4 2 3 5 5 4 2 2 4 6 8 5 3 6 9 3 3 3 9 10 8 9 14 21 26 28 33 33 34 33 33 28 28 29 28 29 31 30 29 19 18 17
2 1 2 4 3 1 4 5 4 4 3 4 5 7 8 9 9 13 14 16 17 20 24 12 11 13 25 17 23 25 30 35 32 28 22 26 28 21 21 22 22 21 17 17 18
Wind_Direction
16 14 10 6 2 359 357 355 354 352 350 346 344 342 334 324 304 225 241 221 186 165 153 125 178 185 89 304 164 94 64 252 251 232 261 303 241 270 314 143 233 206 171 308 130
10 5 0 356 354 351 347 345 344 344 343 341 340 340 338 330 264 248 242 174 147 148 133 155 169 140 39 231 183 112 146 226 216 228 239 244 205 237 221 218 245 267 68 79 137
357 353 349 347 345 342 337 335 335 335 337 337 336 337 333 328 317 246 173 165 159 170 149 163 118 144 209 154 203 185 212 220 254 233 208 235 252 214 201 252 219 212 197 165 165
349 344 343 341 339 335 331 326 324 326 330 331 332 331 329 333 288 285 151 156 152 158 127 162 153 169 205 215 201 200 242 226 268 246 248 231 246 242 200 237 208 225 171 166 183
342 337 337 334 332 329 326 320 317 317 320 322 328 334 352 349 250 143 137 141 127 142 176 175 167 170 201 211 241 231 253 248 232 273 251 291 244 227 248 245 248 250 172 188 198
329 331 328 322 322 321 318 318 314 310 308 308 318 324 123 249 213 158 149 145 191 170 190 162 201 204 234 234 186 247 248 263 269 245 246 221 279 135 261 238 240 233 220 205 205
322 323 319 314 314 313 310 310 308 305 299 297 289 205 178 233 299 154 150 191 185 182 200 230 189 160 229 292 273 291 302 314 248 225 233 139 286 229 253 186 246 249 236 221 220
308 309 310 310 310 311 311 310 303 296 295 277 201 155 243 332 114 131 168 327 347 223 8 360 126 193 182 291 354 308 335 311 283 145 240 142 259 253 261 198 257 248 255 248 237
305 309 310 312 314 314 314 309 300 290 254 180 136 152 260 69 187 213 150 180 111 59 44 65 95 188 14 93 339 310 245 226 305 211 149 178 246 269 257 202 255 260 251 250 257
296 303 307 312 315 316 319 312 300 31 122 206 290 44 270 228 197 173 175 146 132 114 68 108 54 170 67 127 225 218 222 254 245 234 169 238 255 274 272 255 250 266 264 257 254
284 295 304 312 317 321 337 10 13 1 10 201 215 235 258 149 108 186 160 120 103 108 174 188 135 208 231 208 226 200 224 236 253 245 212 231 235 247 265 260 254 260 258 254 247
280 291 302 313 320 323 10 69 169 189 306 267 252 273 270 178 191 229 118 146 150 202 147 147 215 223 234 197 227 247 255 260 272 269 205 263 256 246 249 265 256 253 258 252 254
276 292 307 313 321 13 45 121 190 151 238 286 221 210 256 162 222 236 148 146 167 182 207 223 230 223 227 232 228 229 238 252 254 298 253 294 275 238 244 258 274 263 254 258 246
267 282 304 316 45 324 51 219 146 136 24 273 246 317 354 165 231 21 348 152 216 222 210 234 246 227 211 225 218 261 225 250 254 280 273 118 294 135 231 245 254 259 250 249 251
240 245 249 40 300 339 309 173 124 60 304 255 206 309 44 118 352 1 294 64 238 205 168 242 204 184 216 233 190 259 179 230 237 215 337 178 263 236 195 234 250 257 252 252 249
228 220 165 141 137 239 280 43 77 44 255 306 57 24 74 31 237 37 81 41 139 272 223 250 253 211 225 201 203 132 82 46 54 101 275 205 192 278 180 209 240 254 255 256 259
267 178 166 163 199 115 284 49 337 200 297 262 127 170 164 220 255 176 167 174 193 301 263 316 218 213 157 232 170 178 100 303 330 30 230 181 187 253 294 260 224 239 254 257 259
337 174 223 215 143 105 50 64 235 198 257 304 114 151 216 161 241 197 182 227 240 178 273 237 295 174 178 200 193 201 183 182 206 242 264 108 232 265 224 243 240 239 247 271 264
308 218 185 192 155 113 118 227 229 205 203 230 328 291 230 228 209 151 208 220 215 186 197 192 266 196 186 193 157 189 196 234 312 347 24 256 269 296 259 274 295 271 286 266 254
276 231 229 167 151 126 196 232 209 229 235 203 243 201 221 209 195 182 195 196 232 192 212 259 267 90 347 323 321 194 209 78 229 221 244 238 262 265 283 286 275 292 276 279 266
296 266 250 145 124 184 222 234 235 194 183 213 248 251 239 197 208 237 258 258 216 209 181 199 197 282 66 190 202 219 257 229 242 195 257 265 262 265 263 291 273 294 302 308 288
240 240 170 145 206 215 233 225 210 199 201 244 259 253 259 270 261 254 252 230 160 142 200 218 200 211 252 255 222 210 222 205 235 249 237 251 251 273 286 261 235 265 297 309 303
233 240 192 209 229 230 235 252 253 254 243 218 241 233 232 252 265 256 258 256 259 257 238 177 222 270 240 281 262 225 233 231 239 254 250 260 262 270 273 261 259 296 295 295 298
294 263 190 226 241 257 245 251 248 216 249 248 260 267 274 268 256 265 266 270 244 235 231 218 245 242 250 254 274 234 235 226 234 245 246 242 256 262 272 267 267 265 274 283 288
251 250 286 222 230 243 253 260 261 271 237 185 242 252 272 276 287 283 309 335 317 322 313 235 250 233 234 246 250 257 259 263 248 250 251 253 253 259 268 275 279 282 276 289 305
274 322 343 289 252 239 208 207 230 243 281 287 279 21 348 287 333 308 321 20 283 323 344 318 297 309 293 265 246 244 245 250 252 252 255 255 252 250 256 268 276 281 302 291 283
307 23 342 283 334 105 239 245 263 62 251 226 354 325 310 320 324 296 281 267 252 267 277 260 278 294 283 288 275 256 244 251 258 262 260 258 260 287 295 289 299 313 9 9 357